Regional Weather Roundup
Issued by NWS

Home | Current Version | Previous Version | Graphics & Text | Print | Product List | Glossary On
Versions: 1 2 3 4 5 6 7 8 9 10 11 12 13 14 15 16 17 18 19 20 21 22 23 24 25 26 27 28 29 30 31 32 33 34 35 36 37 38 39 40 41 42 43 44 45 46 47
000
ASUS43 KDMX 141807
RWRIA

WEATHER ROUNDUP FOR IOWA
NATIONAL WEATHER SERVICE DES MOINES IA
100 PM CDT SUN SEP 14 2014

NOTE: "FAIR" INDICATES FEW OR NO CLOUDS BELOW 12,000 FEET WITH NO
SIGNIFICANT WEATHER AND/OR OBSTRUCTIONS TO VISIBILITY.

* - THESE STATIONS ARE NOT NWS STATIONS...THUS NOT UNDER NWS
QUALITY CONTROL.  THEY ALSO DO NOT REPORT WEATHER SUCH
AS PRECIPITATION OR FOG.

IAZ001>003-012>014-020>022-031>034-043>046-141900-
   NORTHWEST IOWA

CITY           SKY/WX    TMP DP  RH WIND       PRES   REMARKS
CARROLL *      SUNNY     64  48  55 VRB6G14   30.18F
CHEROKEE *     CLOUDY    61  50  66 SW8       30.18F
DENISON *      SUNNY     64  46  52 VRB5      30.17F
LE MARS *      PTSUNNY   61  50  67 VRB3      30.18F
ORANGE CITY *  MOSUNNY   57  48  72 SW3       30.18S
SHELDON *      MOSUNNY   59  48  67 CALM      30.16F
SIOUX CITY     PTSUNNY   64  49  57 SW8       30.19S
6HR MIN TEMP:  43; 6HR MAX TEMP:  65;

SPENCER        PTSUNNY   60  48  64 SW8       30.17F
6HR MIN TEMP:  43; 6HR MAX TEMP:  62;

STORM LAKE *   SUNNY     63  52  67 SW12      30.18F
$$

IAZ055>058-069>071-079>083-090>094-141900-
   SOUTHWEST IOWA

CITY           SKY/WX    TMP DP  RH WIND       PRES   REMARKS
ATLANTIC *     MOSUNNY   66  50  55 S8G15     30.19F
AUDUBON *      SUNNY     68  54  60 S6        30.20F
CLARINDA *     MOSUNNY   68  50  52 VRB6G12   30.22F
COUNCIL BLFS * SUNNY     66  50  55 S10       30.18F
CRESTON *      SUNNY     66  50  55 S12       30.22S
HARLAN  *      SUNNY     66  50  55 S12       30.21F
LAMONI         SUNNY     66  47  50 S8        30.22F
6HR MIN TEMP:  49; 6HR MAX TEMP:  67;

SHENANDOAH *   SUNNY     70  48  46 SW5G13    30.20F
$$

IAZ047>049-059>061-072>074-084-141900-
   CENTRAL IOWA

CITY           SKY/WX    TMP DP  RH WIND       PRES   REMARKS
AMES           SUNNY     67  48  50 S14G20    30.19F
6HR MIN TEMP:  48; 6HR MAX TEMP:  67;

ANKENY *       SUNNY     66  48  52 SW6G14    30.21F
CHARITON *     SUNNY     66  46  48 SW5       30.22F
DES MOINES     MOSUNNY   68  48  48 SW10      30.21S
6HR MIN TEMP:  51; 6HR MAX TEMP:  68;

GRINNELL*      SUNNY     64  48  55 S7        30.22F
KNOXVILLE *    SUNNY     66  46  48 S7        30.20F
MARSHALLTOWN   MOSUNNY   66  48  52 S12G18    30.20F
6HR MIN TEMP:  47; 6HR MAX TEMP:  66;

PELLA *        SUNNY     67  48  51 SW8       30.23F
PERRY *          N/A     67  49  52 SW12      30.20F
$$

IAZ004>006-015-016-023>025-035-036-141900-
   NORTH CENTRAL IOWA

CITY           SKY/WX    TMP DP  RH WIND       PRES   REMARKS
ALGONA *       MOSUNNY   63  50  63 W9        30.17F
CLARION *        N/A     66  46  48 SW13      30.17F
ESTHERVILLE    MOSUNNY   64  47  53 CALM      30.16F
6HR MIN TEMP:  43; 6HR MAX TEMP:  64;

FORT DODGE *   MOSUNNY   66  50  55 SW13      30.18F
MASON CITY     PTSUNNY   66  49  54 SW14      30.17F
6HR MIN TEMP:  47; 6HR MAX TEMP:  66;

FOREST CITY *  PTSUNNY   64  50  59 SW10G17   30.16F
IOWA FALLS *     N/A     66  46  48 SW12      30.20S
$$

IAZ007>011-017>019-026>030-037>042-050>054-066-141900-
   NORTHEAST IOWA

CITY           SKY/WX    TMP DP  RH WIND       PRES   REMARKS
CEDAR RAPIDS   SUNNY     64  47  53 SW8       30.23F
6HR MIN TEMP:  43; 6HR MAX TEMP:  64;

CHARLES CITY * MOSUNNY   66  48  52 SW10      30.18F
CLINTON *      SUNNY     63  45  51 SW7       30.27F
DECORAH *      SUNNY     64  46  52 SW13G20   30.17S
DUBUQUE        MOSUNNY   61  45  55 S15       30.23F
6HR MIN TEMP:  40; 6HR MAX TEMP:  62;

MONTICELLO *   MOSUNNY   63  45  51 SW13      30.23F
OELWEIN *      SUNNY     64  46  52 SW15G24   30.20F
WATERLOO       SUNNY     66  46  48 SW14G21   30.19F
6HR MIN TEMP:  49; 6HR MAX TEMP:  66;

$$

IAZ064-065-067-068-078-141900-
   EAST CENTRAL IOWA

CITY           SKY/WX    TMP DP  RH WIND       PRES   REMARKS
DAVENPORT      SUNNY     63  43  48 S7        30.25F
6HR MIN TEMP:  40; 6HR MAX TEMP:  63;

IOWA CITY      SUNNY     63  46  54 SW10      30.25F
6HR MIN TEMP:  41; 6HR MAX TEMP:  64;

MT. PLEASANT * SUNNY     66  40  38 S6        30.25F
MUSCATINE *    SUNNY     66  43  42 S9        30.25F
QUAD CITIES    SUNNY     64  43  46 S10       30.25F
6HR MIN TEMP:  39; 6HR MAX TEMP:  64;

$$

IAZ062-063-075>077-085>089-095>099-141900-
   SOUTHEAST IOWA

CITY           SKY/WX    TMP DP  RH WIND       PRES   REMARKS
BURLINGTON     SUNNY     64  45  49 VRB3      30.26F
6HR MIN TEMP:  42; 6HR MAX TEMP:  64; 6HR PCP: TRACE;

FAIRFIELD *    SUNNY     64  43  45 VRB5G13   30.24F
FORT MADISON * SUNNY     66  43  42 CALM      30.27F
KEOKUK *       SUNNY     64  45  48 SW7       30.26F
OSKALOOSA *      N/A     65  48  54 SE6       30.23F
CENTERVILLE *  SUNNY     66  48  52 SE6       30.25F
OTTUMWA        SUNNY     65  47  52 S7        30.23F
6HR MIN TEMP:  46; 6HR MAX TEMP:  65;

WASHINGTON *   SUNNY     66  46  48 VRB6G14   30.24F
$$

ABBREVIATIONS USED IN REMARKS
   TC - TEMPERATURES IN CELSIUS
  WCI - WIND CHILL INDEX
   HX - HEAT INDEX
  VSB - VISIBILITY
$$




USA.gov is the U.S. government's official web portal to all federal, state and local government web resources and services.